Time,TemperatureF,DewpointF,PressureIn,WindDirection,WindDirectionDegrees,WindSpeedMPH,WindSpeedGustMPH,Humidity,HourlyPrecipIn,Conditions,Clouds,dailyrainin,SoftwareType,DateUTC
2013-03-04 00:00:00,58.7,43.5,29.75,South,180,14.1,19.9,57,0.00,,,0.00,WUHU216HW,2013-03-04 06:00:00,
2013-03-04 00:05:00,58.7,43.5,29.75,SSE,158,9.6,18.8,57,0.00,,,0.00,WUHU216HW,2013-03-04 06:05:00,
2013-03-04 00:10:00,58.5,43.3,29.75,SSW,203,13.4,19.7,57,0.00,,,0.00,WUHU216HW,2013-03-04 06:10:00,
2013-03-04 00:15:00,58.3,43.6,29.74,South,180,18.6,19.7,58,0.00,,,0.00,WUHU216HW,2013-03-04 06:15:00,
2013-03-04 00:20:00,58.1,43.5,29.75,SSW,203,14.1,18.6,58,0.00,,,0.00,WUHU216HW,2013-03-04 06:20:00,
2013-03-04 00:25:00,58.1,43.5,29.74,SSW,203,16.3,18.3,58,0.00,,,0.00,WUHU216HW,2013-03-04 06:25:00,
2013-03-04 00:30:00,58.1,43.5,29.74,SSE,158,10.5,16.8,58,0.00,,,0.00,WUHU216HW,2013-03-04 06:30:00,
2013-03-04 00:35:00,58.1,43.5,29.74,SSE,158,12.8,17.9,58,0.00,,,0.00,WUHU216HW,2013-03-04 06:35:00,
2013-03-04 00:40:00,58.1,42.9,29.73,South,180,18.8,20.6,57,0.00,,,0.00,WUHU216HW,2013-03-04 06:40:00,
2013-03-04 00:45:00,58.0,42.9,29.73,South,180,10.5,20.6,57,0.00,,,0.00,WUHU216HW,2013-03-04 06:45:00,
2013-03-04 00:50:00,58.0,42.9,29.73,SSE,158,15.0,18.8,57,0.00,,,0.00,WUHU216HW,2013-03-04 06:50:00,
2013-03-04 00:55:00,58.0,42.9,29.73,SSE,158,18.6,19.2,57,0.00,,,0.00,WUHU216HW,2013-03-04 06:55:00,
2013-03-04 01:00:00,58.0,42.9,29.73,SSE,158,15.7,19.2,57,0.00,,,0.00,WUHU216HW,2013-03-04 07:00:00,
2013-03-04 01:05:00,57.8,42.7,29.73,South,180,15.0,19.2,57,0.00,,,0.00,WUHU216HW,2013-03-04 07:05:00,
2013-03-04 01:10:00,57.6,42.0,29.73,SSE,158,11.0,17.2,56,0.00,,,0.00,WUHU216HW,2013-03-04 07:10:00,
2013-03-04 01:15:00,57.6,42.0,29.73,South,180,17.4,19.2,56,0.00,,,0.00,WUHU216HW,2013-03-04 07:15:00,
2013-03-04 01:20:00,57.4,41.9,29.73,SSW,203,11.6,19.2,56,0.00,,,0.00,WUHU216HW,2013-03-04 07:20:00,
2013-03-04 01:25:00,57.4,41.9,29.73,SSW,203,9.8,18.1,56,0.00,,,0.00,WUHU216HW,2013-03-04 07:25:00,
2013-03-04 01:30:00,57.4,41.9,29.73,SSE,158,15.4,21.0,56,0.00,,,0.00,WUHU216HW,2013-03-04 07:30:00,
2013-03-04 01:35:00,57.2,41.7,29.73,SSW,203,13.2,21.0,56,0.00,,,0.00,WUHU216HW,2013-03-04 07:35:00,
2013-03-04 01:40:00,57.2,42.1,29.72,South,180,19.0,20.6,57,0.00,,,0.00,WUHU216HW,2013-03-04 07:40:00,
2013-03-04 01:45:00,57.2,42.1,29.72,SSE,158,15.7,20.6,57,0.00,,,0.00,WUHU216HW,2013-03-04 07:45:00,
2013-03-04 01:50:00,57.1,41.9,29.72,SSE,158,15.7,19.0,57,0.00,,,0.00,WUHU216HW,2013-03-04 07:50:00,
2013-03-04 01:55:00,56.9,41.8,29.72,South,180,19.5,20.8,57,0.00,,,0.00,WUHU216HW,2013-03-04 07:55:00,
2013-03-04 02:00:00,56.9,42.3,29.72,SSW,203,14.5,20.8,58,0.00,,,0.00,WUHU216HW,2013-03-04 08:00:00,
2013-03-04 02:05:00,56.7,42.1,29.71,SSE,158,9.8,21.5,58,0.00,,,0.00,WUHU216HW,2013-03-04 08:05:00,
2013-03-04 02:10:00,56.3,42.2,29.71,South,180,17.7,21.5,59,0.00,,,0.00,WUHU216HW,2013-03-04 08:10:00,
2013-03-04 02:15:00,56.3,42.2,29.71,South,180,16.8,17.7,59,0.00,,,0.00,WUHU216HW,2013-03-04 08:15:00,
2013-03-04 02:20:00,56.2,42.5,29.71,South,180,16.6,20.1,60,0.00,,,0.00,WUHU216HW,2013-03-04 08:20:00,
2013-03-04 02:25:00,56.2,42.5,29.71,SSW,203,10.5,20.1,60,0.00,,,0.00,WUHU216HW,2013-03-04 08:25:00,
2013-03-04 02:30:00,56.0,42.8,29.70,SSE,158,14.8,19.0,61,0.00,,,0.00,WUHU216HW,2013-03-04 08:30:00,
2013-03-04 02:35:00,56.0,42.8,29.70,SSW,203,10.5,19.0,61,0.00,,,0.00,WUHU216HW,2013-03-04 08:35:00,
2013-03-04 02:40:00,56.0,42.8,29.70,South,180,10.1,26.6,61,0.00,,,0.00,WUHU216HW,2013-03-04 08:40:00,
2013-03-04 02:45:00,55.8,42.9,29.70,South,180,15.7,26.6,62,0.00,,,0.00,WUHU216HW,2013-03-04 08:45:00,
2013-03-04 02:50:00,56.0,43.1,29.70,South,180,14.1,19.2,62,0.00,,,0.00,WUHU216HW,2013-03-04 08:50:00,
2013-03-04 02:55:00,56.0,43.1,29.70,SSW,203,15.4,19.2,62,0.00,,,0.00,WUHU216HW,2013-03-04 08:55:00,
2013-03-04 03:00:00,55.8,43.4,29.69,South,180,12.3,18.3,63,0.00,,,0.00,WUHU216HW,2013-03-04 09:00:00,
2013-03-04 03:05:00,55.8,43.4,29.69,SSW,203,14.8,17.4,63,0.00,,,0.00,WUHU216HW,2013-03-04 09:05:00,
2013-03-04 03:10:00,55.8,43.4,29.69,SW,225,12.1,17.0,63,0.00,,,0.00,WUHU216HW,2013-03-04 09:10:00,
2013-03-04 03:15:00,55.8,43.4,29.69,SSE,158,10.5,17.0,63,0.00,,,0.00,WUHU216HW,2013-03-04 09:15:00,
2013-03-04 03:20:00,55.8,43.7,29.68,SSW,203,10.1,15.7,64,0.00,,,0.00,WUHU216HW,2013-03-04 09:20:00,
2013-03-04 03:25:00,55.8,43.7,29.68,SSW,203,12.1,15.7,64,0.00,,,0.00,WUHU216HW,2013-03-04 09:25:00,
2013-03-04 03:30:00,55.8,43.7,29.68,South,180,13.2,15.0,64,0.00,,,0.00,WUHU216HW,2013-03-04 09:30:00,
2013-03-04 03:35:00,55.8,43.7,29.67,SSW,203,13.2,15.0,64,0.00,,,0.00,WUHU216HW,2013-03-04 09:35:00,
2013-03-04 03:40:00,55.8,43.7,29.67,South,180,12.3,19.2,64,0.00,,,0.00,WUHU216HW,2013-03-04 09:40:00,
2013-03-04 03:45:00,55.8,43.7,29.68,SSW,203,16.3,19.2,64,0.00,,,0.00,WUHU216HW,2013-03-04 09:45:00,
2013-03-04 03:50:00,55.8,43.7,29.67,SW,225,13.4,19.2,64,0.00,,,0.00,WUHU216HW,2013-03-04 09:50:00,
2013-03-04 03:55:00,55.8,43.7,29.67,SSE,158,17.2,21.9,64,0.00,,,0.00,WUHU216HW,2013-03-04 09:55:00,
2013-03-04 04:00:00,56.0,43.9,29.67,SSW,203,9.6,21.9,64,0.00,,,0.00,WUHU216HW,2013-03-04 10:00:00,
2013-03-04 04:05:00,55.8,43.7,29.67,SSE,158,13.9,17.9,64,0.00,,,0.00,WUHU216HW,2013-03-04 10:05:00,
2013-03-04 04:10:00,55.8,43.7,29.67,SSW,203,18.1,22.4,64,0.00,,,0.00,WUHU216HW,2013-03-04 10:10:00,
2013-03-04 04:15:00,55.8,44.2,29.67,SSW,203,14.5,22.4,65,0.00,,,0.00,WUHU216HW,2013-03-04 10:15:00,
2013-03-04 04:20:00,55.6,44.0,29.67,SSW,203,11.4,19.0,65,0.00,,,0.00,WUHU216HW,2013-03-04 10:20:00,
2013-03-04 04:25:00,55.4,44.3,29.67,SSW,203,19.2,19.2,66,0.00,,,0.00,WUHU216HW,2013-03-04 10:25:00,
2013-03-04 04:30:00,55.4,44.3,29.68,SW,225,12.8,19.2,66,0.00,,,0.00,WUHU216HW,2013-03-04 10:30:00,
2013-03-04 04:35:00,55.4,44.3,29.67,SW,225,12.3,19.2,66,0.00,,,0.00,WUHU216HW,2013-03-04 10:35:00,
2013-03-04 04:40:00,55.3,44.1,29.67,SW,225,13.4,17.9,66,0.00,,,0.00,WUHU216HW,2013-03-04 10:40:00,
2013-03-04 04:45:00,55.3,44.1,29.68,SSW,203,15.7,17.9,66,0.00,,,0.00,WUHU216HW,2013-03-04 10:45:00,
2013-03-04 04:50:00,55.3,44.1,29.68,SSW,203,12.3,17.0,66,0.00,,,0.00,WUHU216HW,2013-03-04 10:50:00,
2013-03-04 04:55:00,55.3,44.1,29.68,South,180,12.1,16.1,66,0.00,,,0.00,WUHU216HW,2013-03-04 10:55:00,
2013-03-04 05:00:00,55.3,44.1,29.68,South,180,13.6,15.7,66,0.00,,,0.00,WUHU216HW,2013-03-04 11:00:00,
2013-03-04 05:05:00,55.3,44.5,29.68,SSW,203,12.1,16.3,67,0.00,,,0.00,WUHU216HW,2013-03-04 11:05:00,
2013-03-04 05:10:00,55.3,44.5,29.68,SSW,203,13.6,16.3,67,0.00,,,0.00,WUHU216HW,2013-03-04 11:10:00,
2013-03-04 05:15:00,55.3,44.5,29.68,SW,225,12.1,15.9,67,0.00,,,0.00,WUHU216HW,2013-03-04 11:15:00,
2013-03-04 05:20:00,55.4,44.6,29.68,SW,225,13.4,16.6,67,0.00,,,0.00,WUHU216HW,2013-03-04 11:20:00,
2013-03-04 05:25:00,55.4,44.6,29.68,SW,225,12.5,16.6,67,0.00,,,0.00,WUHU216HW,2013-03-04 11:25:00,
2013-03-04 05:30:00,55.6,44.8,29.68,SSW,203,9.2,20.1,67,0.00,,,0.00,WUHU216HW,2013-03-04 11:30:00,
2013-03-04 05:35:00,55.8,45.4,29.68,SSW,203,15.0,20.1,68,0.00,,,0.00,WUHU216HW,2013-03-04 11:35:00,
2013-03-04 05:40:00,55.8,45.4,29.67,SSW,203,16.3,18.1,68,0.00,,,0.00,WUHU216HW,2013-03-04 11:40:00,
2013-03-04 05:45:00,56.0,45.5,29.67,SSW,203,11.6,19.2,68,0.00,,,0.00,WUHU216HW,2013-03-04 11:45:00,
2013-03-04 05:50:00,56.0,45.5,29.67,South,180,20.1,20.1,68,0.00,,,0.00,WUHU216HW,2013-03-04 11:50:00,
2013-03-04 05:55:00,56.2,46.2,29.67,SSW,203,16.8,20.8,69,0.00,,,0.00,WUHU216HW,2013-03-04 11:55:00,
2013-03-04 06:00:00,56.2,46.2,29.67,SW,225,10.5,20.8,69,0.00,,,0.00,WUHU216HW,2013-03-04 12:00:00,
2013-03-04 06:05:00,56.2,46.2,29.67,SSW,203,15.4,20.1,69,0.00,,,0.00,WUHU216HW,2013-03-04 12:05:00,
2013-03-04 06:10:00,56.2,46.2,29.67,SW,225,14.3,20.6,69,0.00,,,0.00,WUHU216HW,2013-03-04 12:10:00,
2013-03-04 06:15:00,56.3,46.7,29.67,SSW,203,20.6,20.6,70,0.00,,,0.00,WUHU216HW,2013-03-04 12:15:00,
2013-03-04 06:20:00,56.5,46.4,29.67,SW,225,11.9,21.0,69,0.00,,,0.00,WUHU216HW,2013-03-04 12:20:00,
2013-03-04 06:25:00,56.3,46.7,29.67,South,180,20.1,21.0,70,0.00,,,0.00,WUHU216HW,2013-03-04 12:25:00,
2013-03-04 06:30:00,56.3,47.1,29.66,South,180,15.0,23.7,71,0.00,,,0.00,WUHU216HW,2013-03-04 12:30:00,
2013-03-04 06:35:00,56.5,47.3,29.66,SSW,203,11.2,23.7,71,0.00,,,0.00,WUHU216HW,2013-03-04 12:35:00,
2013-03-04 06:40:00,56.5,47.3,29.66,SW,225,15.2,20.6,71,0.00,,,0.00,WUHU216HW,2013-03-04 12:40:00,
2013-03-04 06:45:00,56.3,47.4,29.65,SSW,203,15.7,21.5,72,0.00,,,0.00,WUHU216HW,2013-03-04 12:45:00,
2013-03-04 06:50:00,56.3,47.4,29.66,SW,225,12.8,21.5,72,0.00,,,0.00,WUHU216HW,2013-03-04 12:50:00,
2013-03-04 06:55:00,56.3,47.4,29.65,SSW,203,11.6,20.6,72,0.00,,,0.00,WUHU216HW,2013-03-04 12:55:00,
2013-03-04 07:00:00,56.3,47.8,29.66,SSW,203,12.3,23.7,73,0.00,,,0.00,WUHU216HW,2013-03-04 13:00:00,
2013-03-04 07:05:00,56.3,47.8,29.66,SSW,203,11.9,23.7,73,0.00,,,0.00,WUHU216HW,2013-03-04 13:05:00,
2013-03-04 07:10:00,56.3,47.8,29.66,SSW,203,15.7,20.1,73,0.00,,,0.00,WUHU216HW,2013-03-04 13:10:00,
2013-03-04 07:15:00,56.5,48.0,29.66,South,180,17.0,23.5,73,0.00,,,0.00,WUHU216HW,2013-03-04 13:15:00,
2013-03-04 07:20:00,56.5,48.0,29.66,SW,225,16.6,24.4,73,0.00,,,0.00,WUHU216HW,2013-03-04 13:20:00,
2013-03-04 07:25:00,56.5,48.0,29.66,SW,225,12.8,24.4,73,0.00,,,0.00,WUHU216HW,2013-03-04 13:25:00,
2013-03-04 07:30:00,56.5,48.2,29.65,South,180,16.1,21.7,74,0.00,,,0.00,WUHU216HW,2013-03-04 13:30:00,
2013-03-04 07:35:00,56.5,48.2,29.65,SSW,203,17.0,19.2,74,0.00,,,0.00,WUHU216HW,2013-03-04 13:35:00,
2013-03-04 07:40:00,56.5,48.2,29.65,SW,225,15.7,21.3,74,0.00,,,0.00,WUHU216HW,2013-03-04 13:40:00,
2013-03-04 07:45:00,56.5,48.2,29.65,SSW,203,14.1,21.3,74,0.00,,,0.00,WUHU216HW,2013-03-04 13:45:00,
2013-03-04 07:50:00,56.5,48.2,29.65,SSW,203,12.3,19.9,74,0.00,,,0.00,WUHU216HW,2013-03-04 13:50:00,
2013-03-04 07:55:00,56.5,48.2,29.65,SW,225,18.8,21.0,74,0.00,,,0.00,WUHU216HW,2013-03-04 13:55:00,
2013-03-04 08:00:00,56.9,48.6,29.66,SW,225,17.7,21.3,74,0.00,,,0.00,WUHU216HW,2013-03-04 14:00:00,
2013-03-04 08:05:00,56.9,48.6,29.65,SSW,203,18.3,21.3,74,0.00,,,0.00,WUHU216HW,2013-03-04 14:05:00,
2013-03-04 08:10:00,56.9,48.6,29.65,SW,225,15.0,20.6,74,0.00,,,0.00,WUHU216HW,2013-03-04 14:10:00,
2013-03-04 08:15:00,56.9,48.6,29.65,SSW,203,21.7,21.7,74,0.00,,,0.00,WUHU216HW,2013-03-04 14:15:00,
2013-03-04 08:20:00,57.1,48.8,29.65,South,180,14.5,23.9,74,0.00,,,0.00,WUHU216HW,2013-03-04 14:20:00,
2013-03-04 08:25:00,57.2,49.0,29.65,SSW,203,17.9,23.9,74,0.00,,,0.00,WUHU216HW,2013-03-04 14:25:00,
2013-03-04 08:30:00,58.0,49.3,29.65,SSE,158,19.2,23.5,73,0.00,,,0.00,WUHU216HW,2013-03-04 14:30:00,
2013-03-04 08:35:00,58.3,49.7,29.65,SW,225,13.9,19.2,73,0.00,,,0.00,WUHU216HW,2013-03-04 14:35:00,
2013-03-04 08:40:00,58.7,49.3,29.65,SW,225,21.9,22.4,71,0.00,,,0.00,WUHU216HW,2013-03-04 14:40:00,
2013-03-04 08:45:00,59.2,49.5,29.65,SW,225,20.8,22.4,70,0.00,,,0.00,WUHU216HW,2013-03-04 14:45:00,
2013-03-04 08:50:00,59.6,49.4,29.65,SSW,203,16.6,21.9,69,0.00,,,0.00,WUHU216HW,2013-03-04 14:50:00,
2013-03-04 08:55:00,60.1,50.0,29.64,SSW,203,15.2,20.8,69,0.00,,,0.00,WUHU216HW,2013-03-04 14:55:00,
2013-03-04 09:00:00,60.1,49.6,29.64,SSW,203,13.9,21.0,68,0.00,,,0.00,WUHU216HW,2013-03-04 15:00:00,
2013-03-04 09:05:00,59.9,49.4,29.63,SSW,203,15.0,22.8,68,0.00,,,0.00,WUHU216HW,2013-03-04 15:05:00,
2013-03-04 09:10:00,59.9,49.4,29.63,SSE,158,15.9,22.8,68,0.00,,,0.00,WUHU216HW,2013-03-04 15:10:00,
2013-03-04 09:15:00,60.1,49.6,29.64,SSW,203,16.3,20.1,68,0.00,,,0.00,WUHU216HW,2013-03-04 15:15:00,
2013-03-04 09:20:00,60.5,49.5,29.65,SW,225,21.7,21.7,67,0.00,,,0.00,WUHU216HW,2013-03-04 15:20:00,
2013-03-04 09:25:00,60.5,49.5,29.65,SW,225,11.9,21.7,67,0.00,,,0.00,WUHU216HW,2013-03-04 15:25:00,
2013-03-04 09:30:00,60.7,49.7,29.64,SSW,203,19.2,22.6,67,0.00,,,0.00,WUHU216HW,2013-03-04 15:30:00,
2013-03-04 09:35:00,61.2,49.8,29.63,SW,225,18.6,22.6,66,0.00,,,0.00,WUHU216HW,2013-03-04 15:35:00,
2013-03-04 09:40:00,62.1,50.2,29.63,SW,225,19.5,21.9,65,0.00,,,0.00,WUHU216HW,2013-03-04 15:40:00,
2013-03-04 09:45:00,62.8,50.4,29.63,SW,225,15.0,23.0,64,0.00,,,0.00,WUHU216HW,2013-03-04 15:45:00,
2013-03-04 09:50:00,63.7,50.4,29.64,SW,225,25.3,25.3,62,0.00,,,0.00,WUHU216HW,2013-03-04 15:50:00,
2013-03-04 09:55:00,63.9,50.1,29.64,SSW,203,14.3,25.3,61,0.00,,,0.00,WUHU216HW,2013-03-04 15:55:00,
2013-03-04 10:00:00,63.9,50.1,29.64,SW,225,10.3,25.3,61,0.00,,,0.00,WUHU216HW,2013-03-04 16:00:00,
2013-03-04 10:05:00,63.7,50.1,29.64,SSW,203,12.1,19.9,61,0.00,,,0.00,WUHU216HW,2013-03-04 16:05:00,
2013-03-04 10:10:00,64.3,50.0,29.64,SSW,203,15.0,20.1,60,0.00,,,0.00,WUHU216HW,2013-03-04 16:10:00,
2013-03-04 10:15:00,65.2,49.0,29.64,SSW,203,16.3,21.5,56,0.00,,,0.00,WUHU216HW,2013-03-04 16:15:00,
2013-03-04 10:20:00,65.7,49.5,29.64,SW,225,11.6,24.4,56,0.00,,,0.00,WUHU216HW,2013-03-04 16:20:00,
2013-03-04 10:25:00,66.1,49.0,29.63,SSW,203,19.9,25.7,54,0.00,,,0.00,WUHU216HW,2013-03-04 16:25:00,
2013-03-04 10:30:00,66.6,49.4,29.63,SW,225,12.1,25.7,54,0.00,,,0.00,WUHU216HW,2013-03-04 16:30:00,
2013-03-04 10:35:00,67.9,49.6,29.63,SSW,203,12.3,21.0,52,0.00,,,0.00,WUHU216HW,2013-03-04 16:35:00,
2013-03-04 10:40:00,67.3,48.6,29.63,SSW,203,18.6,20.8,51,0.00,,,0.00,WUHU216HW,2013-03-04 16:40:00,
2013-03-04 10:45:00,67.0,48.8,29.63,SSW,203,21.7,21.7,52,0.00,,,0.00,WUHU216HW,2013-03-04 16:45:00,
2013-03-04 10:50:00,67.0,48.8,29.64,SW,225,12.3,21.7,52,0.00,,,0.00,WUHU216HW,2013-03-04 16:50:00,
2013-03-04 10:55:00,66.4,48.8,29.63,SSW,203,12.8,18.1,53,0.00,,,0.00,WUHU216HW,2013-03-04 16:55:00,
2013-03-04 11:00:00,65.7,48.6,29.64,SW,225,10.5,18.6,54,0.00,,,0.00,WUHU216HW,2013-03-04 17:00:00,
2013-03-04 11:05:00,65.5,48.4,29.63,SW,225,15.0,18.6,54,0.00,,,0.00,WUHU216HW,2013-03-04 17:05:00,
2013-03-04 11:10:00,65.7,48.6,29.63,SW,225,13.4,16.8,54,0.00,,,0.00,WUHU216HW,2013-03-04 17:10:00,
2013-03-04 11:15:00,65.7,48.6,29.64,SSW,203,15.9,17.2,54,0.00,,,0.00,WUHU216HW,2013-03-04 17:15:00,
2013-03-04 11:20:00,65.9,48.8,29.64,SSW,203,14.5,17.2,54,0.00,,,0.00,WUHU216HW,2013-03-04 17:20:00,
2013-03-04 11:25:00,66.6,49.4,29.63,SW,225,12.3,16.3,54,0.00,,,0.00,WUHU216HW,2013-03-04 17:25:00,
2013-03-04 11:30:00,67.7,49.0,29.62,SSW,203,18.1,18.6,51,0.00,,,0.00,WUHU216HW,2013-03-04 17:30:00,
2013-03-04 11:35:00,68.0,48.8,29.62,SSW,203,18.6,20.6,50,0.00,,,0.00,WUHU216HW,2013-03-04 17:35:00,
2013-03-04 11:40:00,68.6,49.8,29.62,SSW,203,16.1,20.6,51,0.00,,,0.00,WUHU216HW,2013-03-04 17:40:00,
2013-03-04 11:45:00,69.7,50.2,29.62,SSE,158,16.3,20.4,50,0.00,,,0.00,WUHU216HW,2013-03-04 17:45:00,
2013-03-04 11:50:00,69.8,49.8,29.62,SSW,203,12.3,17.7,49,0.00,,,0.00,WUHU216HW,2013-03-04 17:50:00,
2013-03-04 11:55:00,69.7,49.7,29.62,SW,225,16.1,20.4,49,0.00,,,0.00,WUHU216HW,2013-03-04 17:55:00,
2013-03-04 12:00:00,70.2,49.5,29.62,SW,225,14.5,20.4,48,0.00,,,0.00,WUHU216HW,2013-03-04 18:00:00,
2013-03-04 12:05:00,70.2,50.1,29.62,South,180,12.8,19.2,49,0.00,,,0.00,WUHU216HW,2013-03-04 18:05:00,
2013-03-04 12:10:00,70.2,49.5,29.61,SW,225,15.9,19.2,48,0.00,,,0.00,WUHU216HW,2013-03-04 18:10:00,
2013-03-04 12:15:00,70.6,49.9,29.61,SSW,203,9.8,19.2,48,0.00,,,0.00,WUHU216HW,2013-03-04 18:15:00,
2013-03-04 12:20:00,71.8,49.8,29.61,SW,225,15.2,19.2,46,0.00,,,0.00,WUHU216HW,2013-03-04 18:20:00,
2013-03-04 12:25:00,72.2,49.5,29.61,SW,225,14.5,21.0,45,0.00,,,0.00,WUHU216HW,2013-03-04 18:25:00,
2013-03-04 12:29:00,72.0,49.4,29.61,SW,225,15.7,21.3,45,0.00,,,0.00,WUHU216HW,2013-03-04 18:29:00,
2013-03-04 12:30:00,72.0,49.4,29.61,SSW,203,14.3,21.3,45,0.00,,,0.00,WUHU216HW,2013-03-04 18:30:00,
2013-03-04 12:35:00,72.9,50.2,29.60,WSW,248,12.5,21.3,45,0.00,,,0.00,WUHU216HW,2013-03-04 18:35:00,
2013-03-04 12:40:00,73.1,49.8,29.60,SSW,203,16.3,21.5,44,0.00,,,0.00,WUHU216HW,2013-03-04 18:40:00,
2013-03-04 12:45:00,73.8,50.4,29.60,SW,225,14.3,21.5,44,0.00,,,0.00,WUHU216HW,2013-03-04 18:45:00,
2013-03-04 12:50:00,74.3,50.3,29.60,SW,225,15.2,19.2,43,0.00,,,0.00,WUHU216HW,2013-03-04 18:50:00,
2013-03-04 12:55:00,74.9,50.2,29.59,South,180,11.6,17.2,42,0.00,,,0.00,WUHU216HW,2013-03-04 18:55:00,
2013-03-04 13:00:00,75.4,50.1,29.59,South,180,15.2,17.2,41,0.00,,,0.00,WUHU216HW,2013-03-04 19:00:00,
2013-03-04 13:05:00,75.4,50.7,29.58,SSW,203,14.5,15.9,42,0.00,,,0.00,WUHU216HW,2013-03-04 19:05:00,
2013-03-04 13:10:00,75.6,49.7,29.58,SSW,203,11.4,19.5,40,0.00,,,0.00,WUHU216HW,2013-03-04 19:10:00,
2013-03-04 13:15:00,75.2,48.6,29.58,SW,225,13.4,23.9,39,0.00,,,0.00,WUHU216HW,2013-03-04 19:15:00,
2013-03-04 13:20:00,75.2,48.6,29.57,SSE,158,12.8,23.9,39,0.00,,,0.00,WUHU216HW,2013-03-04 19:20:00,
2013-03-04 13:25:00,75.4,49.5,29.57,SW,225,17.2,19.9,40,0.00,,,0.00,WUHU216HW,2013-03-04 19:25:00,
2013-03-04 13:30:00,75.2,50.0,29.57,SSW,203,12.3,19.9,41,0.00,,,0.00,WUHU216HW,2013-03-04 19:30:00,
2013-03-04 13:35:00,75.8,51.0,29.57,SSW,203,12.1,17.2,42,0.00,,,0.00,WUHU216HW,2013-03-04 19:35:00,
2013-03-04 13:40:00,76.7,50.6,29.57,SSW,203,13.4,16.6,40,0.00,,,0.00,WUHU216HW,2013-03-04 19:40:00,
2013-03-04 13:45:00,77.4,51.3,29.57,South,180,11.4,18.3,40,0.00,,,0.00,WUHU216HW,2013-03-04 19:45:00,
2013-03-04 13:50:00,77.8,50.9,29.57,SSW,203,9.2,19.2,39,0.00,,,0.00,WUHU216HW,2013-03-04 19:50:00,
2013-03-04 13:55:00,77.9,49.4,29.56,SW,225,15.2,19.2,37,0.00,,,0.00,WUHU216HW,2013-03-04 19:55:00,
2013-03-04 14:00:00,78.1,49.6,29.55,SSW,203,17.9,19.0,37,0.00,,,0.00,WUHU216HW,2013-03-04 20:00:00,
2013-03-04 14:05:00,78.8,50.2,29.56,SSW,203,17.9,18.3,37,0.00,,,0.00,WUHU216HW,2013-03-04 20:05:00,
2013-03-04 14:10:00,79.0,48.9,29.55,SSW,203,13.2,17.9,35,0.00,,,0.00,WUHU216HW,2013-03-04 20:10:00,
2013-03-04 14:15:00,79.4,50.0,29.56,SW,225,14.1,17.9,36,0.00,,,0.00,WUHU216HW,2013-03-04 20:15:00,
2013-03-04 14:20:00,79.6,49.3,29.55,SSW,203,11.0,16.6,35,0.00,,,0.00,WUHU216HW,2013-03-04 20:20:00,
2013-03-04 14:25:00,79.9,49.7,29.55,SSW,203,13.0,17.0,35,0.00,,,0.00,WUHU216HW,2013-03-04 20:25:00,
2013-03-04 14:30:00,80.5,50.1,29.55,SW,225,11.6,17.0,35,0.00,,,0.00,WUHU216HW,2013-03-04 20:30:00,
2013-03-04 14:35:00,81.0,49.9,29.55,SW,225,14.3,16.3,34,0.00,,,0.00,WUHU216HW,2013-03-04 20:35:00,
2013-03-04 14:40:00,81.0,49.9,29.55,SSW,203,16.8,16.8,34,0.00,,,0.00,WUHU216HW,2013-03-04 20:40:00,
2013-03-04 14:45:00,81.0,49.9,29.55,SSW,203,14.3,16.8,34,0.00,,,0.00,WUHU216HW,2013-03-04 20:45:00,
2013-03-04 14:50:00,80.6,48.0,29.54,SW,225,19.7,19.7,32,0.00,,,0.00,WUHU216HW,2013-03-04 20:50:00,
2013-03-04 14:54:00,80.6,48.8,29.54,SSW,203,15.2,19.7,33,0.00,,,0.00,WUHU216HW,2013-03-04 20:54:00,
2013-03-04 14:59:00,80.8,49.7,29.54,South,180,14.1,20.1,34,0.00,,,0.00,WUHU216HW,2013-03-04 20:59:00,
2013-03-04 15:04:00,81.0,50.6,29.54,SSE,158,12.5,20.1,35,0.00,,,0.00,WUHU216HW,2013-03-04 21:04:00,
2013-03-04 15:09:00,80.6,50.3,29.55,SSW,203,16.1,20.1,35,0.00,,,0.00,WUHU216HW,2013-03-04 21:09:00,
2013-03-04 15:14:00,80.3,50.8,29.55,SSW,203,14.1,20.1,36,0.00,,,0.00,WUHU216HW,2013-03-04 21:14:00,
2013-03-04 15:19:00,80.3,51.6,29.55,SSW,203,13.0,19.2,37,0.00,,,0.00,WUHU216HW,2013-03-04 21:19:00,
2013-03-04 15:24:00,80.3,50.0,29.54,WSW,248,13.0,22.8,35,0.00,,,0.00,WUHU216HW,2013-03-04 21:24:00,
2013-03-04 15:29:00,80.3,50.8,29.55,SSW,203,9.8,22.8,36,0.00,,,0.00,WUHU216HW,2013-03-04 21:29:00,
2013-03-04 15:34:00,80.8,49.7,29.55,SSW,203,14.8,21.0,34,0.00,,,0.00,WUHU216HW,2013-03-04 21:34:00,
2013-03-04 15:39:00,80.8,50.5,29.55,SW,225,14.1,21.0,35,0.00,,,0.00,WUHU216HW,2013-03-04 21:39:00,
2013-03-04 15:44:00,81.0,50.6,29.55,SSW,203,9.8,20.1,35,0.00,,,0.00,WUHU216HW,2013-03-04 21:44:00,
2013-03-04 15:49:00,81.0,50.6,29.55,SSE,158,15.9,17.9,35,0.00,,,0.00,WUHU216HW,2013-03-04 21:49:00,
2013-03-04 15:54:00,80.6,51.1,29.55,SSW,203,14.8,18.3,36,0.00,,,0.00,WUHU216HW,2013-03-04 21:54:00,
2013-03-04 15:59:00,80.5,51.7,29.55,South,180,16.3,18.3,37,0.00,,,0.00,WUHU216HW,2013-03-04 21:59:00,
2013-03-04 16:04:00,80.3,51.6,29.55,South,180,13.9,17.2,37,0.00,,,0.00,WUHU216HW,2013-03-04 22:04:00,
2013-03-04 16:09:00,80.3,51.6,29.55,SSE,158,13.6,17.2,37,0.00,,,0.00,WUHU216HW,2013-03-04 22:09:00,
2013-03-04 16:14:00,79.9,51.2,29.55,SSE,158,11.4,18.1,37,0.00,,,0.00,WUHU216HW,2013-03-04 22:14:00,
2013-03-04 16:19:00,79.9,52.0,29.55,South,180,18.6,18.6,38,0.00,,,0.00,WUHU216HW,2013-03-04 22:19:00,
2013-03-04 16:24:00,79.7,51.9,29.55,SSE,158,10.7,18.6,38,0.00,,,0.00,WUHU216HW,2013-03-04 22:24:00,
2013-03-04 16:29:00,79.7,51.9,29.55,South,180,12.8,18.6,38,0.00,,,0.00,WUHU216HW,2013-03-04 22:29:00,
2013-03-04 16:34:00,79.6,51.7,29.55,South,180,9.8,20.4,38,0.00,,,0.00,WUHU216HW,2013-03-04 22:34:00,
2013-03-04 16:39:00,79.2,52.1,29.55,SW,225,21.3,21.3,39,0.00,,,0.00,WUHU216HW,2013-03-04 22:39:00,
2013-03-04 16:44:00,78.8,51.8,29.55,SW,225,9.8,21.3,39,0.00,,,0.00,WUHU216HW,2013-03-04 22:44:00,
2013-03-04 16:49:00,78.8,51.8,29.55,SW,225,12.8,21.3,39,0.00,,,0.00,WUHU216HW,2013-03-04 22:49:00,
2013-03-04 16:54:00,78.5,52.2,29.55,SW,225,15.0,18.6,40,0.00,,,0.00,WUHU216HW,2013-03-04 22:54:00,
2013-03-04 16:59:00,78.3,52.1,29.55,SSW,203,12.3,18.6,40,0.00,,,0.00,WUHU216HW,2013-03-04 22:59:00,
2013-03-04 17:04:00,78.1,51.9,29.55,SW,225,13.6,18.1,40,0.00,,,0.00,WUHU216HW,2013-03-04 23:04:00,
2013-03-04 17:09:00,77.8,51.6,29.54,South,180,15.7,18.1,40,0.00,,,0.00,WUHU216HW,2013-03-04 23:09:00,
2013-03-04 17:14:00,77.8,51.6,29.55,SSW,203,15.0,16.3,40,0.00,,,0.00,WUHU216HW,2013-03-04 23:14:00,
2013-03-04 17:19:00,77.6,52.0,29.55,SSW,203,11.4,16.3,41,0.00,,,0.00,WUHU216HW,2013-03-04 23:19:00,
2013-03-04 17:24:00,77.4,51.8,29.55,South,180,11.6,16.6,41,0.00,,,0.00,WUHU216HW,2013-03-04 23:24:00,
2013-03-04 17:29:00,76.9,52.0,29.55,SSE,158,10.1,16.6,42,0.00,,,0.00,WUHU216HW,2013-03-04 23:29:00,
2013-03-04 17:34:00,76.3,52.7,29.56,South,180,8.7,14.8,44,0.00,,,0.00,WUHU216HW,2013-03-04 23:34:00,
2013-03-04 17:39:00,75.6,52.1,29.55,SSE,158,9.2,14.8,44,0.00,,,0.00,WUHU216HW,2013-03-04 23:39:00,
2013-03-04 17:44:00,75.2,52.4,29.55,South,180,12.1,16.6,45,0.00,,,0.00,WUHU216HW,2013-03-04 23:44:00,
2013-03-04 17:49:00,75.1,52.2,29.56,SSW,203,10.5,16.6,45,0.00,,,0.00,WUHU216HW,2013-03-04 23:49:00,
2013-03-04 17:54:00,74.7,51.8,29.56,South,180,10.5,15.0,45,0.00,,,0.00,WUHU216HW,2013-03-04 23:54:00,
2013-03-04 17:59:00,74.5,52.3,29.56,SSW,203,8.9,13.4,46,0.00,,,0.00,WUHU216HW,2013-03-04 23:59:00,
2013-03-04 18:04:00,74.2,51.9,29.56,SSW,203,7.4,12.5,46,0.00,,,0.00,WUHU216HW,2013-03-05 00:04:00,
2013-03-04 18:09:00,73.8,51.0,29.56,SSW,203,8.1,12.1,45,0.00,,,0.00,WUHU216HW,2013-03-05 00:09:00,
2013-03-04 18:14:00,73.8,51.6,29.56,South,180,9.4,12.1,46,0.00,,,0.00,WUHU216HW,2013-03-05 00:14:00,
2013-03-04 18:19:00,73.4,51.3,29.56,SSW,203,7.6,11.0,46,0.00,,,0.00,WUHU216HW,2013-03-05 00:19:00,
2013-03-04 18:24:00,73.1,50.9,29.56,SSE,158,6.5,11.4,46,0.00,,,0.00,WUHU216HW,2013-03-05 00:24:00,
2013-03-04 18:29:00,72.5,51.0,29.56,SSE,158,10.7,11.4,47,0.00,,,0.00,WUHU216HW,2013-03-05 00:29:00,
2013-03-04 18:34:00,72.4,51.5,29.56,SSE,158,7.6,11.0,48,0.00,,,0.00,WUHU216HW,2013-03-05 00:34:00,
2013-03-04 18:39:00,72.0,51.1,29.56,SSE,158,9.4,11.0,48,0.00,,,0.00,WUHU216HW,2013-03-05 00:39:00,
2013-03-04 18:44:00,71.8,51.0,29.56,SSE,158,9.6,11.4,48,0.00,,,0.00,WUHU216HW,2013-03-05 00:44:00,
2013-03-04 18:49:00,71.6,50.9,29.56,SW,225,8.1,11.4,48,0.00,,,0.00,WUHU216HW,2013-03-05 00:49:00,
2013-03-04 18:54:00,71.6,50.9,29.56,South,180,6.5,12.1,48,0.00,,,0.00,WUHU216HW,2013-03-05 00:54:00,
2013-03-04 19:00:00,71.5,50.7,29.56,South,180,7.4,12.5,48,0.00,,,0.00,WUHU216HW,2013-03-05 01:00:00,
2013-03-04 19:05:00,71.5,50.7,29.56,South,180,7.6,12.5,48,0.00,,,0.00,WUHU216HW,2013-03-05 01:05:00,
2013-03-04 19:10:00,71.3,50.5,29.57,South,180,9.4,12.1,48,0.00,,,0.00,WUHU216HW,2013-03-05 01:10:00,
2013-03-04 19:15:00,71.3,50.5,29.57,South,180,6.5,12.1,48,0.00,,,0.00,WUHU216HW,2013-03-05 01:15:00,
2013-03-04 19:20:00,71.1,50.3,29.57,SSW,203,5.1,11.2,48,0.00,,,0.00,WUHU216HW,2013-03-05 01:20:00,
2013-03-04 19:25:00,70.9,50.2,29.57,SSE,158,8.5,10.7,48,0.00,,,0.00,WUHU216HW,2013-03-05 01:25:00,
2013-03-04 19:30:00,70.7,50.1,29.56,SSE,158,8.3,11.0,48,0.00,,,0.00,WUHU216HW,2013-03-05 01:30:00,
2013-03-04 19:35:00,70.6,49.9,29.57,SSE,158,8.5,11.0,48,0.00,,,0.00,WUHU216HW,2013-03-05 01:35:00,
2013-03-04 19:40:00,70.2,50.1,29.57,SSW,203,8.5,10.5,49,0.00,,,0.00,WUHU216HW,2013-03-05 01:40:00,
2013-03-04 19:45:00,70.2,50.1,29.57,SSW,203,6.9,10.1,49,0.00,,,0.00,WUHU216HW,2013-03-05 01:45:00,
2013-03-04 19:50:00,70.0,50.0,29.57,South,180,7.6,10.1,49,0.00,,,0.00,WUHU216HW,2013-03-05 01:50:00,
2013-03-04 19:55:00,69.8,49.8,29.57,South,180,9.8,10.5,49,0.00,,,0.00,WUHU216HW,2013-03-05 01:55:00,
2013-03-04 20:00:00,69.8,50.4,29.57,SSE,158,8.5,10.5,50,0.00,,,0.00,WUHU216HW,2013-03-05 02:00:00,
2013-03-04 20:05:00,69.7,50.2,29.57,SSE,158,8.1,9.8,50,0.00,,,0.00,WUHU216HW,2013-03-05 02:05:00,
2013-03-04 20:10:00,69.5,50.0,29.57,SSW,203,6.5,8.9,50,0.00,,,0.00,WUHU216HW,2013-03-05 02:10:00,
2013-03-04 20:15:00,69.5,50.0,29.58,SSW,203,6.3,9.4,50,0.00,,,0.00,WUHU216HW,2013-03-05 02:15:00,
2013-03-04 20:20:00,69.5,49.5,29.57,South,180,6.5,9.4,49,0.00,,,0.00,WUHU216HW,2013-03-05 02:20:00,
2013-03-04 20:25:00,69.3,49.3,29.58,SSW,203,6.5,8.9,49,0.00,,,0.00,WUHU216HW,2013-03-05 02:25:00,
2013-03-04 20:30:00,69.1,49.1,29.58,SSW,203,4.7,8.9,49,0.00,,,0.00,WUHU216HW,2013-03-05 02:30:00,
2013-03-04 20:35:00,68.9,49.6,29.58,South,180,7.6,12.5,50,0.00,,,0.00,WUHU216HW,2013-03-05 02:35:00,
2013-03-04 20:40:00,68.9,49.6,29.58,South,180,8.1,12.5,50,0.00,,,0.00,WUHU216HW,2013-03-05 02:40:00,
2013-03-04 20:45:00,68.8,49.4,29.58,SW,225,5.4,9.2,50,0.00,,,0.00,WUHU216HW,2013-03-05 02:45:00,
2013-03-04 20:50:00,68.8,49.4,29.58,SSW,203,8.5,9.4,50,0.00,,,0.00,WUHU216HW,2013-03-05 02:50:00,
2013-03-04 20:55:00,68.8,49.4,29.58,SSW,203,6.9,12.3,50,0.00,,,0.00,WUHU216HW,2013-03-05 02:55:00,
2013-03-04 21:00:00,68.9,50.1,29.58,SSW,203,8.5,12.3,51,0.00,,,0.00,WUHU216HW,2013-03-05 03:00:00,
2013-03-04 21:05:00,68.8,50.0,29.58,SW,225,8.1,10.7,51,0.00,,,0.00,WUHU216HW,2013-03-05 03:05:00,
2013-03-04 21:10:00,68.9,49.6,29.58,SSW,203,6.9,11.9,50,0.00,,,0.00,WUHU216HW,2013-03-05 03:10:00,
2013-03-04 21:15:00,69.1,49.8,29.59,SSE,158,8.1,11.9,50,0.00,,,0.00,WUHU216HW,2013-03-05 03:15:00,
2013-03-04 21:20:00,69.1,49.8,29.59,SSE,158,10.3,12.3,50,0.00,,,0.00,WUHU216HW,2013-03-05 03:20:00,
2013-03-04 21:25:00,69.1,50.2,29.59,SSW,203,11.4,12.5,51,0.00,,,0.00,WUHU216HW,2013-03-05 03:25:00,
2013-03-04 21:30:00,69.3,50.4,29.59,South,180,12.1,15.0,51,0.00,,,0.00,WUHU216HW,2013-03-05 03:30:00,
2013-03-04 21:35:00,69.3,50.4,29.60,SSW,203,7.8,15.0,51,0.00,,,0.00,WUHU216HW,2013-03-05 03:35:00,
2013-03-04 21:40:00,69.1,50.2,29.60,SSE,158,8.9,14.1,51,0.00,,,0.00,WUHU216HW,2013-03-05 03:40:00,
2013-03-04 21:45:00,69.1,50.8,29.60,SSW,203,10.5,15.7,52,0.00,,,0.00,WUHU216HW,2013-03-05 03:45:00,
2013-03-04 21:50:00,69.1,51.2,29.60,SSW,203,9.6,15.7,53,0.00,,,0.00,WUHU216HW,2013-03-05 03:50:00,
2013-03-04 21:55:00,68.9,51.6,29.60,South,180,13.0,14.3,54,0.00,,,0.00,WUHU216HW,2013-03-05 03:55:00,
2013-03-04 22:00:00,68.9,51.6,29.60,SSE,158,11.4,15.2,54,0.00,,,0.00,WUHU216HW,2013-03-05 04:00:00,
2013-03-04 22:05:00,68.9,52.0,29.60,SSW,203,14.3,15.2,55,0.00,,,0.00,WUHU216HW,2013-03-05 04:05:00,
2013-03-04 22:10:00,68.9,52.6,29.60,South,180,10.5,14.8,56,0.00,,,0.00,WUHU216HW,2013-03-05 04:10:00,
2013-03-04 22:15:00,68.8,52.9,29.60,South,180,12.8,15.4,57,0.00,,,0.00,WUHU216HW,2013-03-05 04:15:00,
2013-03-04 22:20:00,68.8,52.9,29.60,SSE,158,9.8,15.4,57,0.00,,,0.00,WUHU216HW,2013-03-05 04:20:00,
2013-03-04 22:25:00,68.8,53.4,29.60,SSE,158,9.2,13.9,58,0.00,,,0.00,WUHU216HW,2013-03-05 04:25:00,
2013-03-04 22:30:00,68.6,53.7,29.60,SSE,158,10.3,12.5,59,0.00,,,0.00,WUHU216HW,2013-03-05 04:30:00,
2013-03-04 22:35:00,68.4,54.0,29.60,SSE,158,13.6,17.0,60,0.00,,,0.00,WUHU216HW,2013-03-05 04:35:00,
2013-03-04 22:40:00,68.4,54.0,29.60,SSE,158,8.1,17.0,60,0.00,,,0.00,WUHU216HW,2013-03-05 04:40:00,
2013-03-04 22:45:00,68.0,54.6,29.61,South,180,13.4,14.8,62,0.00,,,0.00,WUHU216HW,2013-03-05 04:45:00,
2013-03-04 22:50:00,68.0,54.6,29.61,SSW,203,12.3,15.0,62,0.00,,,0.00,WUHU216HW,2013-03-05 04:50:00,
2013-03-04 22:55:00,68.0,54.6,29.61,South,180,8.5,15.0,62,0.00,,,0.00,WUHU216HW,2013-03-05 04:55:00,
2013-03-04 23:00:00,67.9,54.8,29.61,SSE,158,10.1,12.8,63,0.00,,,0.00,WUHU216HW,2013-03-05 05:00:00,
2013-03-04 23:05:00,67.5,54.9,29.61,South,180,8.9,13.6,64,0.00,,,0.00,WUHU216HW,2013-03-05 05:05:00,
2013-03-04 23:10:00,67.5,54.9,29.61,South,180,6.3,13.6,64,0.00,,,0.00,WUHU216HW,2013-03-05 05:10:00,
2013-03-04 23:15:00,67.3,54.7,29.62,SSE,158,7.6,13.0,64,0.00,,,0.00,WUHU216HW,2013-03-05 05:15:00,
2013-03-04 23:20:00,67.1,54.9,29.62,SW,225,10.5,12.1,65,0.00,,,0.00,WUHU216HW,2013-03-05 05:20:00,
2013-03-04 23:25:00,67.0,55.2,29.63,SSW,203,9.2,11.9,66,0.00,,,0.00,WUHU216HW,2013-03-05 05:25:00,
2013-03-04 23:30:00,66.8,54.6,29.64,WSW,248,7.6,11.2,65,0.00,,,0.00,WUHU216HW,2013-03-05 05:30:00,
2013-03-04 23:35:00,66.2,54.6,29.68,NW,315,6.9,10.7,66,0.00,,,0.00,WUHU216HW,2013-03-05 05:35:00,
2013-03-04 23:40:00,65.7,53.6,29.69,NW,315,6.9,14.3,65,0.00,,,0.00,WUHU216HW,2013-03-05 05:40:00,
2013-03-04 23:45:00,65.2,52.7,29.68,WNW,293,8.7,14.3,64,0.00,,,0.00,WUHU216HW,2013-03-05 05:45:00,
2013-03-04 23:50:00,65.2,53.1,29.69,NW,315,6.3,10.5,65,0.00,,,0.00,WUHU216HW,2013-03-05 05:50:00,
2013-03-04 23:55:00,65.2,53.1,29.69,NW,315,2.5,9.8,65,0.00,,,0.00,WUHU216HW,2013-03-05 05:55:00,